Regional Weather Roundup
Issued by NWS

Home | Current Version | Previous Version | Graphics & Text | Print | Product List | Glossary On
Versions: 1 2 3 4 5 6 7 8 9 10 11 12 13 14 15 16 17 18 19 20 21 22 23 24 25 26 27 28 29 30 31 32 33 34 35 36 37 38 39 40 41 42 43 44 45 46 47 48 49 50
000
ASUS45 KBOU 292107
RWRCO

WEATHER ROUNDUP FOR COLORADO
NATIONAL WEATHER SERVICE DENVER/BOULDER CO
300 PM MDT TUE JUL 29 2014

NOTE: "FAIR" INDICATES FEW OR NO CLOUDS BELOW 12000 FEET WITH NO
SIGNIFICANT WEATHER AND/OR OBSTRUCTIONS TO VISIBILITY.

COZ001>005-013-030-031-292200-
...NORTHWEST COLORADO...

CITY           SKY/WX    TMP DP  RH WIND       PRES   REMARKS
CRAIG          CLOUDY    61  59  93 CALM      30.30F
HAYDEN         CLOUDY    63  54  72 NW5       30.33F
MEEKER         CLOUDY    69  52  54 E10       30.30F
MOUNT WERNER   NOT AVBL
STEAMBOAT SPGS CLOUDY    60  54  82 NE3       30.36F
WALDEN         CLOUDY    59  50  72 N7        30.37R
$$

COZ006>008-011-292200-
...WEST CENTRAL VALLEYS...

CITY           SKY/WX    TMP DP  RH WIND       PRES   REMARKS
GRAND JUNCTION CLOUDY    74  59  59 SW6       30.20F
MONTROSE       PTSUNNY   74  59  59 W10       30.28R
EAGLE          PTSUNNY   66  57  72 CALM      30.34F
RIFLE          CLOUDY    72  56  57 NW5       30.26F
DELTA          PTSUNNY   78  59  51 W12       30.23S
NUCLA          PTSUNNY   73  57  56 CALM      30.31S
$$

COZ017>023-064>068-292200-
...SOUTHWEST COLORADO...

CITY           SKY/WX    TMP DP  RH WIND       PRES   REMARKS
DURANGO        MOSUNNY   80  50  34 VRB6G17   30.28F
CORTEZ         SUNNY     83  56  39 SW9       30.25F
PAGOSA SPRINGS PTSUNNY   74  48  39 S10       30.35F
TELLURIDE      TSTM      55  54  94 SW12G21   30.50R
WOLF CREEK PAS NOT AVBL
$$

COZ009-010-012-014-032>034-037-058>063-292200-
...CENTRAL COLORADO...

CITY           SKY/WX    TMP DP  RH WIND       PRES   REMARKS
ASPEN          CLOUDY    61  54  77 CALM      30.40F
BUENA VISTA    CLOUDY    68  44  42 CALM      30.36F
COPPER MTN     CLOUDY    48  43  81 W18       30.65F VSB<1/4
BERTHOUD PASS  TSTM      43  30  61 MISG      30.70S
COTTONWOOD PAS CLOUDY    63  50  63 CALM      30.50F
GUNNISON       PTSUNNY   70  52  52 N7        30.37F
KREMMLING      CLOUDY    66  50  55 W12       30.36S THUNDER
LEADVILLE      CLOUDY    60  44  55 VRB5      30.49F
MONARCH PASS   CLOUDY    48  46  93 W14G20    30.74F
SALIDA         PTSUNNY   68  54  60 CALM      30.41F
SUNLIGHT       CLOUDY    55  52  88 CALM      30.60F
WILKERSON PASS PTSUNNY   55  46  71 SW6       30.62S
$$

COZ069>075-292200-
...SAN LUIS VALLEY/SANGRE DE CRISTO MOUNTAINS...

CITY           SKY/WX    TMP DP  RH WIND       PRES   REMARKS
ALAMOSA        LGT RAIN  64  55  72 W9        30.36R
LA VETA PASS   CLOUDY    61  50  67 CALM      30.52F THUNDER
SAGUACHE       CLOUDY    63  55  77 S6        30.38S
$$

COZ035-036-038>040-292200-
...NORTHERN COLORADO FRONT RANGE...

CITY           SKY/WX    TMP DP  RH WIND       PRES   REMARKS
DENVER INTL AP TSTM      66  58  75 SE18G25   30.19F
DMNS CITY PARK   N/A     72  53  50 SW8G21    30.19R
AURORA         PTSUNNY   72  56  57 SE23      30.20F
FRONT RANGE AP PTSUNNY   72  57  60 SE20G29   30.21F
ERIE MUNI ARPT CLOUDY    81  53  38 NW7       30.16F
BOULDER MUN AP CLOUDY    79  55  44 W10       30.18S
CENTENNIAL     CLOUDY    68  55  63 SE20G28   30.21F THUNDER
BROOMFIELD     CLOUDY    77  57  50 NW12      30.20F
FORT COLLINS   CLOUDY    66  57  72 N24G30    30.17R THUNDER
LONGMONT       CLOUDY    77  55  45 NW18G26   30.18F
$$

COZ041-046-047-076>085-087-088-292200-
...PIKES PEAK/PALMER DIVIDE AND SOUTHERN FOOTHILLS...

CITY           SKY/WX    TMP DP  RH WIND       PRES   REMARKS
COLO. SPRINGS  PTSUNNY   75  58  55 SE12      30.23F
A. F. ACADEMY  PTSUNNY   74  52  45 VRB6      30.24F
ELLICOTT       PTSUNNY   75  56  51 SE12      30.22F
FALCON         CLOUDY    74  54  49 E8        30.29F
FORT CARSON    MOSUNNY   77  59  54 VRB3      30.20F
LIMON            N/A     61  58  90 NW15G33   30.24R THUNDER FOG
MONUMENT HILL  TSTM      59  55  88 E9G21     30.32R
TRINIDAD       CLOUDY    76  57  51 W13       30.19F
$$

COZ042>045-048>051-090-091-292200-
...NORTHEAST COLORADO...

CITY           SKY/WX    TMP DP  RH WIND       PRES   REMARKS
GREELEY ARPT   CLOUDY    81  55  41 SE10      30.12F THUNDER
AKRON          PTSUNNY   86  53  32 SE16G28   30.15F
BURLINGTON     PTSUNNY   82  60  47 SE14G22   30.15F
WRAY             N/A     89  51  26 E14G23    30.12F
STERLING       PTSUNNY   90  59  35 SE13G20   30.12F
HOLYOKE        MOSUNNY   86  59  39 E14       30.16S
FORT MORGAN    PTSUNNY   85  48  27 E22       30.14F
$$

COZ086-089-092>099-292200-
...SOUTHEAST COLORADO...

CITY           SKY/WX    TMP DP  RH WIND       PRES   REMARKS
PUEBLO         MOSUNNY   81  61  50 S8        30.12F
LA JUNTA       MOSUNNY   84  63  49 E9        30.10F
LAMAR          PTSUNNY   86  62  44 SE16      30.07F
SPRINGFIELD      N/A     80  61  52 S22       30.13F
$$



USA.gov is the U.S. government's official web portal to all federal, state and local government web resources and services.